CAPE
0 0 0 0 0 0 0 0 0 0 0 0 0 0 0 0 0 0 0 0 0 0 0 0 0 0 0 0 0 0 0 0 0 0 0 0 0 0 0 0 0 0 0 0
0 0 0 0 0 0 0 0 0 0 0 0 0 0 0 0 0 0 0 0 0 0 0 0 0 0 0 0 0 0 0 0 0 0 0 0 0 0 0 0 0 0 0 0
0 0 0 0 0 0 0 0 0 0 0 0 0 0 0 0 0 0 0 0 0 0 0 0 0 0 0 0 0 0 0 0 0 0 0 0 0 0 0 0 0 0 0 0
0 0 0 0 0 0 0 0 0 0 0 0 0 0 0 0 0 0 0 0 0 0 0 0 0 0 0 0 0 0 0 0 0 0 0 0 0 0 0 0 0 0 0 0
0 0 0 0 0 0 0 0 0 0 0 0 0 0 0 0 0 0 0 0 0 0 0 0 0 0 0 0 0 0 0 0 0 0 0 0 0 0 0 0 0 0 0 0
0 0 0 0 0 0 0 0 0 0 0 0 0 0 0 0 0 0 0 0 0 0 0 0 0 0 0 0 0 0 0 0 0 0 0 0 0 0 0 0 0 0 0 0
0 0 0 0 0 0 0 0 0 0 0 0 0 0 0 0 0 0 0 0 0 0 0 0 0 0 0 0 0 0 0 0 0 0 0 0 0 0 0 0 0 0 0 0
0 0 0 0 0 0 0 0 0 0 0 0 0 0 0 0 0 0 0 0 0 0 0 0 0 0 0 0 0 0 0 0 0 0 0 0 0 0 0 0 0 0 0 0
0 0 0 0 0 0 0 0 0 0 0 0 0 0 0 0 0 0 0 0 0 0 0 0 0 0 0 0 0 0 0 0 0 0 0 0 0 0 0 0 0 0 0 0
0 0 2 0 0 0 0 0 0 0 0 0 0 0 0 0 0 0 0 0 0 0 0 0 0 0 0 0 0 0 0 0 0 0 0 0 0 0 0 0 0 0 0 0
0 0 2 0 0 0 0 0 0 0 0 0 0 0 0 0 0 0 0 0 0 0 0 0 0 0 0 0 0 0 0 0 0 0 0 0 0 0 0 0 0 0 0 0
0 0 0 0 0 0 0 0 0 0 0 0 0 0 0 0 0 0 0 0 0 0 0 0 0 0 0 0 0 0 0 0 0 0 0 0 0 0 0 0 0 0 0 0
0 0 0 0 0 0 1 0 0 0 0 0 0 0 0 0 0 0 0 0 0 0 0 0 0 0 0 0 0 0 0 0 0 0 0 0 0 0 0 0 0 0 0 0
0 0 0 0 0 0 0 0 0 0 0 0 0 0 0 0 0 0 0 0 0 0 0 0 0 0 0 0 0 0 0 0 0 0 0 0 0 0 0 0 0 0 0 0
0 0 0 0 0 0 0 0 0 0 0 0 0 0 0 0 0 0 0 0 0 0 0 0 0 0 0 0 0 0 0 0 0 0 0 0 0 0 0 0 0 0 0 0
0 0 0 0 0 0 0 0 0 0 0 0 0 0 0 0 0 0 0 0 0 0 0 0 0 0 0 0 0 0 0 0 0 0 0 0 0 0 0 0 0 0 0 0
0 0 0 0 0 0 0 0 0 0 0 0 0 0 0 0 0 0 0 0 0 0 0 0 0 0 0 0 0 0 0 0 0 0 0 0 0 0 0 0 0 0 0 0
1 0 0 0 0 0 0 0 0 0 0 0 0 0 0 0 0 0 0 0 0 0 0 0 0 0 0 0 0 0 0 0 0 0 0 0 0 0 0 0 0 0 0 0
7 0 0 1 0 0 0 0 0 0 0 0 0 0 0 0 0 0 0 0 0 0 0 0 0 0 0 0 0 0 0 0 0 0 0 0 0 0 0 0 0 0 0 0
4 1 0 0 1 0 0 0 0 0 0 0 0 0 0 0 0 0 0 0 0 0 0 0 0 0 0 0 0 0 0 0 0 0 0 0 0 0 0 0 0 0 0 0
0 1 0 0 0 0 0 0 0 0 0 0 0 0 0 0 0 0 0 0 0 0 0 0 0 0 0 0 0 0 0 0 0 0 0 0 0 0 0 0 0 0 0 0
0 0 0 0 1 0 0 0 0 0 0 0 0 0 0 0 0 0 0 0 0 0 0 0 0 0 0 0 0 0 0 0 0 0 0 0 0 0 0 0 0 0 0 0
0 0 0 0 0 0 0 0 0 0 0 0 0 0 0 0 0 0 0 0 0 0 0 0 0 0 0 0 0 0 0 0 0 0 0 0 0 0 0 0 0 0 1 1
0 0 0 0 0 0 0 0 0 0 0 0 0 0 0 0 0 0 0 0 0 0 0 0 0 0 0 0 0 0 0 0 0 0 0 0 0 0 0 0 0 0 0 1
0 0 0 0 0 0 0 0 0 0 0 0 0 0 0 0 0 0 0 0 0 0 0 0 0 0 0 0 0 0 0 0 0 0 0 0 0 0 0 0 0 0 0 0
0 0 0 0 0 0 0 0 0 0 0 0 0 0 0 0 0 0 0 0 0 0 0 0 0 0 0 0 0 0 0 0 0 0 0 0 0 0 0 1 1 0 0 0
CIN
-0 -0 -0 -0 -0 -0 -0 -0 -0 -0 -0 -0 -0 -0 -0 -0 -0 -0 -0 -0 -0 -0 -0 -0 -0 -0 -0 -0 -0 -0 -0 -0 -0 -0 -0 -0 -0 -0 -0 -0 -0 -0 -0 -0
-0 -0 -0 -0 -0 -0 -0 -0 -0 -0 -0 -0 -0 -0 -0 -0 -0 -0 -0 -0 -0 -0 -0 -0 -0 -0 -0 -0 -0 -0 -0 -0 -0 -0 -0 -0 -0 -0 -0 -0 -0 -0 -0 -0
-0 -0 -0 -0 -0 -0 -0 -0 -0 -0 -0 -0 -0 -0 -0 -0 -0 -0 -0 -0 -0 -0 -0 -0 -0 -0 -0 -0 -0 -0 -0 -0 -0 -0 -0 -0 -0 -0 -0 -0 -0 -0 -0 -0
-0 -0 -0 -0 -0 -0 -0 -0 -0 -0 -0 -0 -0 -0 -0 -0 -0 -0 -0 -0 -0 -0 -0 -0 -0 -0 -0 -0 -0 -0 -0 -0 -0 -0 -0 -0 -0 -0 -0 -0 -0 -0 -0 -0
-0 -0 -0 -0 -0 -0 -0 -0 -0 -0 -0 -0 -0 -0 -0 -0 -0 -0 -0 -0 -0 -0 -0 -0 -0 -0 -0 -0 -0 -0 -0 -0 -0 -0 -0 -0 -0 -0 -0 -0 -0 -0 -0 -0
-0 -0 -0 -0 -0 -0 -0 -0 -0 -0 -0 -0 -0 -0 -0 -0 -0 -0 -0 -0 -0 -0 -0 -0 -0 -0 -0 -0 -0 -0 -0 -0 -0 -0 -0 -0 -0 -0 -0 -0 -0 -0 -0 -0
-0 -0 -0 -0 -0 -0 -0 -0 -0 -0 -0 -0 -0 -0 -0 -0 -0 -0 -0 -0 -0 -0 -0 -0 -0 -0 -0 -0 -0 -0 -0 -0 -0 -0 -0 -0 -0 -0 -0 -0 -0 -0 -0 -0
-0 -0 -0 -0 -0 -0 -0 -0 -0 -0 -0 -0 -0 -0 -0 -0 -0 -0 -0 -0 -0 -0 -0 -0 -0 -0 -0 -0 -0 -0 -0 -0 -0 -0 -0 -0 -0 -0 -0 -0 -0 -0 -0 -0
-0 -0 -0 -0 -0 -0 -0 -0 -0 -0 -0 -0 -0 -0 -0 -0 -0 -0 -0 -0 -0 -0 -0 -0 -0 -0 -0 -0 -0 -0 -0 -0 -0 -0 -0 -0 -0 -0 -0 -0 -0 -0 -0 -0
-0 -0 -0 -0 -0 -0 -0 -0 -0 -0 -0 -0 -0 -0 -0 -0 -0 -0 -0 -0 -0 -0 -0 -0 -0 -0 -0 -0 -0 -0 -0 -0 -0 -0 -0 -0 -0 -0 -0 -0 -0 -0 -0 -0
-0 -0 -0 -0 -0 -0 -0 -0 -0 -0 -0 -0 -0 -0 -0 -0 -0 -0 -0 -0 -0 -0 -0 -0 -0 -0 -0 -0 -0 -0 -0 -0 -0 -0 -0 -0 -0 -0 -0 -0 -0 -0 -0 -0
-0 -0 -0 -0 -0 -0 -0 -0 -0 -0 -0 -0 -0 -0 -0 -0 -0 -0 -0 -0 -0 -0 -0 -0 -0 -0 -0 -0 -0 -0 -0 -0 -0 -0 -0 -0 -0 -0 -0 -0 -0 -0 -0 -0
-0 -0 -0 -0 -0 -0 -1 -0 -0 -0 -0 -0 -0 -0 -0 -0 -0 -0 -0 -0 -0 -0 -0 -0 -0 -0 -0 -0 -0 -0 -0 -0 -0 -0 -0 -0 -0 -0 -0 -0 -0 -0 -0 -0
-0 -0 -0 -0 -0 -0 -0 -0 -0 -0 -0 -0 -0 -0 -0 -0 -0 -0 -0 -0 -0 -0 -0 -0 -0 -0 -0 -0 -0 -0 -0 -0 -0 -0 -0 -0 -0 -0 -0 -0 -0 -0 -0 -0
-0 -0 -0 -0 -0 -0 -0 -0 -0 -0 -0 -0 -0 -0 -0 -0 -0 -0 -0 -0 -0 -0 -0 -0 -0 -0 -0 -0 -0 -0 -0 -0 -0 -0 -0 -0 -0 -0 -0 -0 -0 -0 -0 -0
-0 -0 -0 -0 -0 -0 -0 -0 -0 -0 -0 -0 -0 -0 -0 -0 -0 -0 -0 -0 -0 -0 -0 -0 -0 -0 -0 -0 -0 -0 -0 -0 -0 -0 -0 -0 -0 -0 -0 -0 -0 -0 -0 -0
-0 -0 -0 -0 -0 -0 -0 -0 -0 -0 -0 -0 -0 -0 -0 -0 -0 -0 -0 -0 -0 -0 -0 -0 -0 -0 -0 -0 -0 -0 -0 -0 -0 -0 -0 -0 -0 -0 -0 -0 -0 -0 -0 -0
-0 -0 -0 -0 -0 -0 -0 -0 -0 -0 -0 -0 -0 -0 -0 -0 -0 -0 -0 -0 -0 -0 -0 -0 -0 -0 -0 -0 -0 -0 -0 -0 -0 -0 -0 -0 -0 -0 -0 -0 -0 -0 -0 -0
-2 -0 -0 -2 -0 -0 -0 -0 -0 -0 -0 -0 -0 -0 -0 -0 -0 -0 -0 -0 -0 -0 -0 -0 -0 -0 -0 -0 -0 -0 -0 -0 -0 -0 -0 -0 -0 -0 -0 -0 -0 -0 -0 -0
-5 -0 -0 -0 -0 -0 -0 -0 -0 -0 -0 -0 -0 -0 -0 -0 -0 -0 -0 -0 -0 -0 -0 -0 -0 -0 -0 -0 -0 -0 -0 -0 -0 -0 -0 -0 -0 -0 -0 -0 -0 -0 -0 -0
-4 -5 -0 -0 -0 -0 -0 -0 -0 -0 -0 -0 -0 -0 -0 -0 -0 -0 -0 -0 -0 -0 -0 -0 -0 -0 -0 -0 -0 -0 -0 -0 -0 -0 -0 -0 -0 -0 -0 -0 -0 -0 -0 -0
-0 -0 -0 -0 -0 -0 -0 -0 -0 -0 -0 -0 -0 -0 -0 -0 -0 -0 -0 -0 -0 -0 -0 -0 -0 -0 -0 -0 -0 -0 -0 -0 -0 -0 -0 -0 -0 -0 -0 -0 -0 -0 -0 -0
-0 -0 -0 -0 -0 -0 -0 -0 -0 -0 -0 -0 -0 -0 -0 -0 -0 -0 -0 -0 -0 -0 -0 -0 -0 -0 -0 -0 -0 -0 -0 -0 -0 -0 -0 -0 -0 -0 -0 -0 -0 -0 -0 -0
-0 -0 -0 -0 -0 -0 -0 -0 -0 -0 -0 -0 -0 -0 -0 -0 -0 -0 -0 -0 -0 -0 -0 -0 -0 -0 -0 -0 -0 -0 -0 -0 -0 -0 -0 -0 -0 -0 -0 -0 -0 -0 -0 -0
-0 -0 -0 -0 -0 -0 -0 -0 -0 -0 -0 -0 -0 -0 -0 -0 -0 -0 -0 -0 -0 -0 -0 -0 -0 -0 -0 -0 -0 -0 -0 -0 -0 -0 -0 -0 -0 -0 -0 -0 -0 -0 -0 -0
-0 -0 -0 -0 -0 -0 -0 -0 -0 -0 -0 -0 -0 -0 -0 -0 -0 -0 -0 -0 -0 -0 -0 -0 -0 -0 -0 -0 -0 -0 -0 -0 -0 -0 -0 -0 -0 -0 -0 -0 -0 -0 -0 -0
Wind_Speed
26 32 34 30 30 32 32 31 34 29 27 31 34 36 35 33 30 31 29 27 23 18 15 12 14 14 14 15 16 17 18 20 19 19 20 20 20 20 21 22 22 23 23 23
30 43 33 31 27 29 30 32 32 30 29 31 37 42 41 35 33 29 30 28 24 20 17 17 16 16 15 16 17 18 19 20 20 20 20 20 20 21 20 20 21 21 22 23
31 28 26 28 29 31 31 32 29 31 26 29 36 44 40 31 31 27 26 27 24 22 19 19 18 17 17 17 18 18 19 19 20 20 19 18 18 18 18 19 19 21 21 22
31 25 25 26 29 27 32 27 27 27 29 33 24 34 23 20 21 20 21 21 21 21 21 18 16 17 17 17 17 17 18 19 19 18 18 19 20 19 19 18 19 20 22 23
29 26 26 28 28 23 28 20 23 25 28 31 29 32 29 24 27 22 19 20 20 20 21 18 14 13 13 14 16 16 15 16 17 17 17 17 17 16 17 18 19 20 22 24
25 21 22 25 21 21 16 17 19 23 27 38 32 29 33 27 25 18 18 20 20 20 17 14 12 12 12 12 12 13 14 15 16 16 16 15 15 15 17 19 20 22 23 24
25 24 22 19 19 20 21 21 30 34 35 38 25 29 33 22 19 21 23 22 20 19 16 12 12 11 10 10 10 11 12 14 15 14 14 14 15 16 18 20 22 23 24 25
34 37 26 22 25 26 23 24 30 36 36 34 26 33 28 22 22 22 23 21 18 17 15 12 10 10 9 9 9 10 11 12 12 12 13 14 15 17 19 20 22 23 24 25
30 30 21 21 22 18 27 32 26 30 30 34 30 28 29 22 21 20 20 20 19 17 14 12 10 9 8 7 7 8 8 9 9 10 12 14 16 18 19 21 22 23 24 25
21 28 23 22 21 25 25 20 29 28 36 39 32 33 31 24 22 21 20 19 17 15 13 11 9 9 7 7 7 6 7 7 9 11 14 15 17 19 20 22 23 24 25 26
21 25 26 23 29 27 25 25 25 24 28 33 35 30 22 21 20 20 19 16 14 13 12 11 9 8 7 6 5 5 7 9 11 13 15 17 19 21 22 23 24 24 25 25
21 20 25 26 23 24 27 28 24 31 32 31 33 36 21 20 20 20 18 14 14 13 11 10 9 7 6 5 5 5 6 9 11 14 17 19 20 22 22 23 23 23 24 24
21 23 25 26 26 25 29 28 28 30 30 35 37 33 21 22 23 21 18 16 14 13 12 10 8 7 6 4 5 7 9 11 13 15 18 20 21 22 21 21 21 21 21 21
23 30 33 38 32 26 31 30 30 30 36 35 36 37 26 24 23 20 17 14 14 14 11 9 8 6 5 5 7 9 11 12 14 16 17 18 18 17 17 18 18 19 20 21
24 30 28 26 26 26 29 30 31 34 35 36 36 35 31 26 24 20 17 16 13 11 10 10 9 9 8 9 11 12 12 12 11 12 13 13 12 13 15 16 18 19 21 22
22 28 27 31 29 30 35 36 34 33 34 38 41 40 29 27 24 23 19 16 14 12 11 10 9 10 11 10 11 10 11 9 6 8 8 9 10 13 15 17 19 20 21 21
23 23 26 33 27 30 42 40 36 37 32 32 38 34 28 28 26 23 20 16 15 14 12 11 11 12 11 11 10 11 8 6 5 6 8 9 11 14 16 19 20 21 22 22
22 21 23 29 24 38 31 22 23 27 30 31 37 35 30 28 26 24 21 18 16 14 13 13 13 10 9 9 8 6 5 6 8 9 10 12 14 17 18 19 21 22 23 24
23 19 24 29 33 34 33 25 23 23 29 26 30 28 27 27 28 29 19 20 15 13 14 14 10 9 11 10 8 6 7 9 10 12 14 15 17 19 21 22 22 23 25 25
26 22 24 24 33 37 25 21 17 16 33 21 22 25 24 21 24 26 18 12 13 14 13 13 14 13 11 8 8 9 9 11 15 17 18 19 20 22 23 23 24 23 23 25
25 24 26 25 31 29 21 14 8 18 21 18 18 21 20 19 16 16 15 13 13 14 13 16 14 12 11 9 8 11 13 17 18 19 20 21 22 23 24 22 22 22 23 22
27 24 25 23 26 33 12 9 18 19 17 17 18 17 14 10 12 14 14 14 15 14 13 12 13 13 12 10 11 16 18 19 21 22 23 25 25 24 23 23 23 22 20 20
31 25 24 22 24 19 7 15 12 14 14 16 17 16 13 12 11 13 14 14 15 15 15 15 17 17 15 14 15 21 22 22 24 25 28 27 26 25 23 23 22 20 19 20
30 26 28 25 28 23 18 19 19 19 16 15 16 16 15 15 15 16 18 19 20 19 19 20 20 21 21 19 20 22 24 25 27 31 31 29 29 27 24 21 19 19 18 18
28 23 28 31 30 24 27 24 22 20 19 19 19 21 20 19 19 21 23 24 25 26 25 25 25 25 25 23 24 25 27 29 33 34 32 31 29 26 22 20 19 19 16 11
28 28 28 32 28 26 29 23 21 21 21 21 22 24 26 23 25 26 28 29 30 30 30 31 30 29 29 30 30 29 30 31 34 35 33 29 24 21 21 19 17 14 12 9
Wind_Direction
251 253 252 256 258 266 272 270 271 274 281 278 276 277 278 281 284 284 286 287 289 289 289 289 291 293 294 298 301 306 308 309 312 316 318 318 319 322 325 329 331 332 333 332
253 251 257 260 261 265 268 269 271 278 282 279 279 276 278 281 282 284 283 283 286 287 283 289 289 289 290 293 298 302 305 308 310 312 314 316 319 323 328 332 335 336 337 338
252 261 255 256 258 260 265 266 270 276 286 284 283 280 279 282 282 283 285 285 286 285 284 287 286 286 289 292 296 300 305 308 311 313 316 319 324 327 328 333 336 339 340 341
254 258 255 254 256 258 262 268 273 277 281 278 291 281 291 290 291 292 291 292 290 289 290 289 286 287 288 293 300 306 309 312 314 315 315 315 316 319 325 331 337 339 340 340
252 252 249 253 255 259 266 272 272 276 278 281 280 283 285 290 288 288 296 301 301 303 298 289 289 289 295 298 299 304 314 318 320 320 321 321 323 327 329 332 332 336 339 341
256 260 255 258 259 258 264 268 278 280 279 274 276 279 285 286 288 291 297 304 307 308 308 304 304 299 297 301 305 309 313 317 324 326 326 326 328 329 328 329 331 332 334 337
250 251 257 256 251 259 263 259 269 270 270 273 282 280 279 294 296 292 294 301 308 313 313 309 305 302 301 301 306 311 316 320 325 329 331 332 333 332 331 330 331 332 334 336
241 250 248 253 256 257 253 262 266 268 271 276 281 277 285 290 290 293 299 304 310 314 317 316 314 310 307 305 308 313 319 324 331 335 337 337 336 335 335 335 335 335 336 337
242 254 251 251 260 248 256 260 275 275 278 277 276 280 286 288 292 298 300 303 307 311 315 318 317 315 312 312 313 317 324 332 338 340 340 339 339 337 337 337 337 336 336 337
252 253 254 255 259 262 264 258 263 269 269 270 274 277 279 287 288 296 300 302 306 311 315 321 322 320 320 318 318 322 328 332 334 336 336 336 337 337 336 335 334 335 336 336
255 261 255 252 254 251 257 258 264 269 272 272 274 280 290 289 295 301 301 304 307 310 313 318 322 324 327 328 326 322 323 326 326 328 330 331 331 332 333 333 334 335 337 338
253 262 256 249 262 262 254 261 258 265 270 274 277 277 296 296 299 299 303 302 306 308 310 313 319 322 319 315 316 319 322 322 325 326 328 328 330 330 331 332 334 336 337 340
241 253 253 257 262 262 257 259 262 269 277 271 274 281 295 291 295 299 298 298 301 301 303 310 315 314 314 308 309 314 319 321 323 324 324 325 326 328 331 334 338 341 343 345
249 255 256 255 262 260 259 258 261 264 269 272 271 279 289 290 293 298 298 297 298 297 297 301 309 317 321 317 316 317 318 320 321 322 323 326 330 335 338 341 343 345 345 345
250 253 254 262 266 262 264 262 258 258 263 270 278 276 279 287 288 291 294 296 294 285 284 289 296 305 315 316 318 319 320 322 325 327 331 335 342 345 345 343 342 341 339 339
253 257 258 260 266 267 266 264 263 261 266 270 273 277 285 286 285 288 289 290 284 274 278 281 292 305 311 318 318 320 321 327 336 336 335 339 341 339 338 338 337 337 335 335
249 257 259 262 270 272 267 264 265 266 266 270 269 279 283 285 284 284 287 282 277 268 271 277 288 298 308 312 315 316 321 329 324 328 329 328 330 328 329 329 329 329 329 330
248 257 265 267 269 264 276 290 279 267 272 272 275 277 282 284 288 287 287 282 274 264 266 278 286 292 307 311 311 316 319 318 318 317 319 321 322 323 324 324 323 324 324 323
249 253 265 264 264 277 282 284 282 278 281 279 278 283 283 283 289 287 285 286 278 267 271 278 283 291 304 297 289 286 300 306 307 308 312 315 316 318 319 318 318 319 320 320
247 251 260 268 269 271 290 295 293 294 284 292 285 285 284 287 284 289 292 288 291 286 286 286 289 299 296 287 285 287 293 299 302 307 310 313 314 315 315 315 317 319 319 319
240 248 253 265 273 283 284 301 308 288 296 307 304 298 289 281 285 318 328 322 314 309 297 296 293 287 290 293 286 284 291 295 306 309 311 311 312 313 314 315 316 318 319 321
239 247 256 264 269 276 283 282 280 296 306 311 316 319 316 304 314 315 312 314 318 321 319 313 305 301 300 293 287 291 292 303 308 311 311 311 312 314 313 313 315 316 318 321
247 252 257 256 270 293 264 295 295 310 309 313 321 329 332 322 312 314 312 315 318 320 319 318 310 307 304 297 291 293 299 305 309 310 310 311 313 313 313 310 311 313 315 318
251 256 264 266 269 274 279 287 296 292 299 308 315 321 320 319 318 314 308 307 308 310 311 311 307 303 299 296 294 296 305 308 308 308 308 309 309 309 309 308 307 308 310 315
256 253 258 268 272 282 278 280 286 284 285 294 301 308 308 312 311 308 304 303 302 304 305 304 302 301 300 301 299 301 303 306 306 306 306 306 307 305 305 303 303 305 307 308
255 260 259 269 276 277 285 278 277 278 284 289 294 298 298 303 302 302 300 300 300 301 303 303 302 301 302 303 303 304 306 305 304 304 304 305 305 305 304 303 306 305 307 301